Meath Environmental Platform

Observations

Time Sensor AQI SAQ Temp °C Hum % Pres Pa CO μg/m³ H₂S μg/m³ NO μg/m³ NO₂ μg/m³ O₃ μg/m³ SO₂ μg/m³ CO₂e PPM VOC PPM PM1 μg/m³ PM2.5 μg/m³ PM4 μg/m³ PM10 μg/m³ TPS µm
Tuesday 11 August 2026
09:30 Trim Patrick St 1 26.3 49 69,730 0.03 0 1.42 12.05 24.66 6.86 2.86 7.22 7.94
09:30 Trim Market St 1 31.2 37 66,031 0 0 0.7 9.28 51.47 0 0.71 4.09 4.23
09:29 Trim Patrick St 1 26.2 50 69,795 0.03 0 1.53 11.07 18.18 5.81 2.86 7.95 8.75
09:29 Trim Market St 1 31.2 37 66,015 0 0 0.68 8.06 22.98 0 0 3.55 3.9
09:28 Trim Patrick St 1 26.1 49 69,903 0.01 0 1.48 11.69 32.86 5.82 2 7.22 7.94
09:27 Trim Patrick St 1 26 51 70,021 0.03 0 1.54 10.38 11.35 5.64 4.57 8.66 9.53
09:27 Trim Market St 1 31.1 38 66,019 0 0 0.64 8.9 38.08 0 0 2.98 3.28
09:26 Trim Patrick St 1 25.9 50 70,182 0.03 0 1.63 11.3 12 5.59 4.57 9.45 10.39
09:26 Trim Market St 1 31 38 66,027 0 0 0.64 9.25 49.63 0 0 2.98 3.27
09:25 Trim Patrick St 1 25.7 50 70,303 0.03 0 1.58 12.15 26.99 6.02 2.86 7.91 8.7
09:24 Trim Patrick St 1 25.6 50 70,362 0.02 0 1.54 11.68 25.61 5.82 2.86 7.95 8.75
09:23 Trim Patrick St 1 25.5 51 70,476 0.06 0 1.6 11.36 27.46 4.9 3.71 8.65 9.52
09:22 Trim Patrick St 1 25.4 51 70,629 0 0 1.63 10.83 44.7 6.29 3.71 8.63 9.5
09:21 Trim Patrick St 1 25.4 50 70,714 0 0 1.58 11.75 47.37 5.12 3.71 8.7 9.57
09:20 Trim Patrick St 1 25.3 52 70,795 0 0 1.74 6.31 13.41 5.46 3.71 8.56 9.41
09:20 Trim Market St 1 30.6 39 65,941 0 0 0.66 7.94 25.79 0 0 2.94 3.23
09:19 Trim Patrick St 1 25.3 51 70,943 0 0 1.64 10.12 38.07 5.62 2 7.12 7.84
09:18 Trim Patrick St 1 25.3 51 71,042 0 0 1.56 8.05 34.1 5.44 2.86 7.85 8.63
09:17 Trim Patrick St 1 25.3 50 71,153 0 0 1.6 8.98 27.19 5.1 2.86 7.91 8.7
09:17 Trim Market St 1 30.4 39 65,898 0 0 0.71 8.55 23.19 0 0 2.92 3.21